Time,TemperatureF,DewpointF,PressureIn,WindDirection,WindDirectionDegrees,WindSpeedMPH,WindSpeedGustMPH,Humidity,HourlyPrecipIn,Conditions,Clouds,dailyrainin,SoftwareType,DateUTC
2013-08-14 00:02:00,67.4,61.0,29.78,South,190,4.0,11.0,79,0.00,,,0.00,weatherlink.com 1.10,2013-08-14 04:02:00,
2013-08-14 00:17:00,66.9,60.0,29.79,NNW,345,1.0,9.0,79,0.00,,,0.00,weatherlink.com 1.10,2013-08-14 04:17:00,
2013-08-14 00:32:00,66.7,59.0,29.79,SE,138,0.0,17.0,77,0.00,,,0.00,weatherlink.com 1.10,2013-08-14 04:32:00,
2013-08-14 00:47:00,66.3,60.0,29.80,NW,317,8.0,11.0,79,0.00,,,0.00,weatherlink.com 1.10,2013-08-14 04:47:00,
2013-08-14 01:02:00,65.7,59.0,29.80,ENE,76,5.0,14.0,80,0.00,,,0.00,weatherlink.com 1.10,2013-08-14 05:02:00,
2013-08-14 01:17:00,65.3,59.0,29.80,NE,56,2.0,9.0,81,0.00,,,0.00,weatherlink.com 1.10,2013-08-14 05:17:00,
2013-08-14 01:32:00,64.7,59.0,29.80,NE,54,7.0,12.0,81,0.00,,,0.00,weatherlink.com 1.10,2013-08-14 05:32:00,
2013-08-14 01:48:00,64.1,58.0,29.80,NE,54,0.0,9.0,81,0.00,,,0.00,weatherlink.com 1.10,2013-08-14 05:48:00,
2013-08-14 02:03:00,63.6,58.0,29.81,NE,34,3.0,10.0,81,0.00,,,0.00,weatherlink.com 1.10,2013-08-14 06:03:00,
2013-08-14 02:18:00,63.0,58.0,29.81,North,9,5.0,11.0,83,0.00,,,0.00,weatherlink.com 1.10,2013-08-14 06:18:00,
2013-08-14 02:33:00,62.3,58.0,29.81,SSE,159,2.0,11.0,85,0.00,,,0.00,weatherlink.com 1.10,2013-08-14 06:33:00,
2013-08-14 02:48:00,61.7,57.0,29.81,NE,47,0.0,7.0,84,0.00,,,0.00,weatherlink.com 1.10,2013-08-14 06:48:00,
2013-08-14 03:03:00,61.3,57.0,29.82,NE,46,9.0,11.0,84,0.00,,,0.00,weatherlink.com 1.10,2013-08-14 07:03:00,
2013-08-14 03:18:00,60.9,56.0,29.82,NE,41,8.0,10.0,85,0.00,,,0.00,weatherlink.com 1.10,2013-08-14 07:18:00,
2013-08-14 03:33:00,60.5,56.0,29.83,NE,51,1.0,8.0,85,0.00,,,0.00,weatherlink.com 1.10,2013-08-14 07:33:00,
2013-08-14 03:48:00,59.8,56.0,29.83,NE,53,0.0,10.0,86,0.00,,,0.00,weatherlink.com 1.10,2013-08-14 07:48:00,
2013-08-14 04:03:00,59.2,55.0,29.83,NE,38,1.0,10.0,85,0.00,,,0.00,weatherlink.com 1.10,2013-08-14 08:03:00,
2013-08-14 04:18:00,58.6,55.0,29.83,ENE,57,2.0,7.0,86,0.00,,,0.00,weatherlink.com 1.10,2013-08-14 08:18:00,
2013-08-14 04:33:00,58.4,54.0,29.83,NNW,345,1.0,11.0,84,0.00,,,0.00,weatherlink.com 1.10,2013-08-14 08:33:00,
2013-08-14 04:48:00,57.9,52.0,29.83,ESE,119,4.0,17.0,80,0.00,,,0.00,weatherlink.com 1.10,2013-08-14 08:48:00,
2013-08-14 05:03:00,57.3,51.0,29.85,East,92,2.0,7.0,79,0.00,,,0.00,weatherlink.com 1.10,2013-08-14 09:03:00,
2013-08-14 05:18:00,56.3,50.0,29.85,NE,36,5.0,8.0,78,0.00,,,0.00,weatherlink.com 1.10,2013-08-14 09:18:00,
2013-08-14 05:33:00,55.6,49.0,29.85,ESE,105,4.0,14.0,77,0.00,,,0.00,weatherlink.com 1.10,2013-08-14 09:33:00,
2013-08-14 05:48:00,55.1,48.0,29.86,ESE,119,4.0,13.0,78,0.00,,,0.00,weatherlink.com 1.10,2013-08-14 09:48:00,
2013-08-14 06:03:00,54.7,48.0,29.87,WNW,296,1.0,11.0,77,0.00,,,0.00,weatherlink.com 1.10,2013-08-14 10:03:00,
2013-08-14 06:18:00,54.6,46.0,29.88,West,266,0.0,11.0,74,0.00,,,0.00,weatherlink.com 1.10,2013-08-14 10:18:00,
2013-08-14 06:33:00,54.5,46.0,29.89,SSE,160,1.0,9.0,72,0.00,,,0.00,weatherlink.com 1.10,2013-08-14 10:33:00,
2013-08-14 06:48:00,54.3,45.0,29.90,NE,48,4.0,14.0,70,0.00,,,0.00,weatherlink.com 1.10,2013-08-14 10:48:00,
2013-08-14 07:03:00,54.1,45.0,29.91,NNE,18,0.0,7.0,70,0.00,,,0.00,weatherlink.com 1.10,2013-08-14 11:03:00,
2013-08-14 07:18:00,54.4,44.0,29.91,SSE,150,6.0,10.0,68,0.00,,,0.00,weatherlink.com 1.10,2013-08-14 11:18:00,
2013-08-14 07:33:00,54.4,44.0,29.92,NNW,334,3.0,18.0,68,0.00,,,0.00,weatherlink.com 1.10,2013-08-14 11:33:00,
2013-08-14 07:49:00,54.4,44.0,29.91,SSW,198,3.0,14.0,68,0.00,,,0.00,weatherlink.com 1.10,2013-08-14 11:49:00,
2013-08-14 08:04:00,54.8,44.0,29.92,SSE,158,3.0,11.0,66,0.00,,,0.00,weatherlink.com 1.10,2013-08-14 12:04:00,
2013-08-14 08:19:00,55.6,44.0,29.92,SSE,148,2.0,7.0,66,0.00,,,0.00,weatherlink.com 1.10,2013-08-14 12:19:00,
2013-08-14 08:34:00,55.6,44.0,29.92,SSW,197,3.0,9.0,65,0.00,,,0.00,weatherlink.com 1.10,2013-08-14 12:34:00,
2013-08-14 08:49:00,55.9,45.0,29.93,ESE,111,1.0,7.0,66,0.00,,,0.00,weatherlink.com 1.10,2013-08-14 12:49:00,
2013-08-14 09:04:00,56.4,44.0,29.94,WNW,301,2.0,12.0,63,0.00,,,0.00,weatherlink.com 1.10,2013-08-14 13:04:00,
2013-08-14 09:19:00,56.7,44.0,29.93,SW,219,11.0,11.0,62,0.00,,,0.00,weatherlink.com 1.10,2013-08-14 13:19:00,
2013-08-14 09:34:00,57.1,44.0,29.94,ENE,69,2.0,9.0,61,0.00,,,0.00,weatherlink.com 1.10,2013-08-14 13:34:00,
2013-08-14 09:49:00,57.8,44.0,29.95,NW,324,1.0,8.0,61,0.00,,,0.00,weatherlink.com 1.10,2013-08-14 13:49:00,
2013-08-14 10:04:00,57.6,44.0,29.95,ENE,61,3.0,13.0,60,0.00,,,0.00,weatherlink.com 1.10,2013-08-14 14:04:00,
2013-08-14 10:19:00,57.9,44.0,29.95,ESE,113,2.0,12.0,61,0.00,,,0.00,weatherlink.com 1.10,2013-08-14 14:19:00,
2013-08-14 10:34:00,58.2,45.0,29.96,SE,134,3.0,12.0,63,0.00,,,0.00,weatherlink.com 1.10,2013-08-14 14:34:00,
2013-08-14 10:49:00,58.7,45.0,29.96,ESE,104,4.0,10.0,60,0.00,,,0.00,weatherlink.com 1.10,2013-08-14 14:49:00,
2013-08-14 11:04:00,59.3,46.0,29.97,WNW,286,3.0,9.0,61,0.00,,,0.00,weatherlink.com 1.10,2013-08-14 15:04:00,
2013-08-14 11:19:00,59.7,44.0,29.97,WSW,238,4.0,11.0,57,0.00,,,0.00,weatherlink.com 1.10,2013-08-14 15:19:00,
2013-08-14 11:34:00,60.9,47.0,29.97,NE,46,1.0,6.0,60,0.00,,,0.00,weatherlink.com 1.10,2013-08-14 15:34:00,
2013-08-14 11:49:00,61.4,46.0,29.97,NE,40,1.0,9.0,57,0.00,,,0.00,weatherlink.com 1.10,2013-08-14 15:49:00,
2013-08-14 12:04:00,61.3,46.0,29.97,NE,42,2.0,9.0,57,0.00,,,0.00,weatherlink.com 1.10,2013-08-14 16:04:00,
2013-08-14 12:19:00,61.6,46.0,29.97,SSE,149,7.0,11.0,56,0.00,,,0.00,weatherlink.com 1.10,2013-08-14 16:19:00,
2013-08-14 12:34:00,62.9,47.0,29.97,SE,134,2.0,9.0,57,0.00,,,0.00,weatherlink.com 1.10,2013-08-14 16:34:00,
2013-08-14 12:49:00,63.5,47.0,29.97,ENE,72,3.0,12.0,56,0.00,,,0.00,weatherlink.com 1.10,2013-08-14 16:49:00,
2013-08-14 13:19:00,63.6,47.0,29.96,North,355,1.0,15.0,56,0.00,,,0.00,weatherlink.com 1.10,2013-08-14 17:19:00,
2013-08-14 13:34:00,63.5,47.0,29.98,ESE,121,2.0,19.0,56,0.00,,,0.00,weatherlink.com 1.10,2013-08-14 17:34:00,
2013-08-14 13:49:00,63.9,48.0,29.97,NW,324,1.0,16.0,57,0.00,,,0.00,weatherlink.com 1.10,2013-08-14 17:49:00,
2013-08-14 14:04:00,63.8,48.0,29.97,NE,38,4.0,17.0,56,0.00,,,0.00,weatherlink.com 1.10,2013-08-14 18:04:00,
2013-08-14 14:19:00,65.3,49.0,29.97,North,355,0.0,11.0,55,0.00,,,0.00,weatherlink.com 1.10,2013-08-14 18:19:00,
2013-08-14 14:34:00,65.0,47.0,29.97,SSW,200,6.0,7.0,53,0.00,,,0.00,weatherlink.com 1.10,2013-08-14 18:34:00,
2013-08-14 14:49:00,65.0,48.0,29.97,SW,223,1.0,11.0,55,0.00,,,0.00,weatherlink.com 1.10,2013-08-14 18:49:00,
2013-08-14 15:04:00,64.6,48.0,29.97,North,5,9.0,18.0,55,0.00,,,0.00,weatherlink.com 1.10,2013-08-14 19:04:00,
2013-08-14 15:19:00,65.7,48.0,29.95,North,355,2.0,8.0,54,0.00,,,0.00,weatherlink.com 1.10,2013-08-14 19:19:00,
2013-08-14 15:34:00,65.6,47.0,29.96,North,355,4.0,16.0,52,0.00,,,0.00,weatherlink.com 1.10,2013-08-14 19:34:00,
2013-08-14 15:49:00,65.5,48.0,29.96,WNW,297,8.0,10.0,53,0.00,,,0.00,weatherlink.com 1.10,2013-08-14 19:49:00,
2013-08-14 16:04:00,65.1,47.0,29.96,WSW,238,3.0,12.0,53,0.00,,,0.00,weatherlink.com 1.10,2013-08-14 20:04:00,
2013-08-14 16:34:00,64.8,48.0,29.97,North,351,2.0,8.0,55,0.00,,,0.00,weatherlink.com 1.10,2013-08-14 20:34:00,
2013-08-14 16:49:00,64.9,48.0,29.98,East,90,1.0,10.0,55,0.00,,,0.00,weatherlink.com 1.10,2013-08-14 20:49:00,
2013-08-14 17:04:00,64.7,48.0,29.98,ENE,78,2.0,8.0,56,0.00,,,0.00,weatherlink.com 1.10,2013-08-14 21:04:00,
2013-08-14 17:19:00,64.3,48.0,29.99,NNE,32,10.0,13.0,55,0.00,,,0.00,weatherlink.com 1.10,2013-08-14 21:19:00,
2013-08-14 17:34:00,64.4,48.0,29.98,ENE,68,5.0,9.0,56,0.00,,,0.00,weatherlink.com 1.10,2013-08-14 21:34:00,
2013-08-14 17:49:00,64.7,48.0,29.99,West,268,2.0,6.0,55,0.00,,,0.00,weatherlink.com 1.10,2013-08-14 21:49:00,
2013-08-14 18:04:00,64.3,48.0,29.99,East,89,1.0,10.0,55,0.00,,,0.00,weatherlink.com 1.10,2013-08-14 22:04:00,
2013-08-14 18:19:00,63.5,47.0,29.99,ESE,103,0.0,8.0,56,0.00,,,0.00,weatherlink.com 1.10,2013-08-14 22:19:00,
2013-08-14 18:34:00,63.6,47.0,29.99,ENE,74,2.0,10.0,56,0.00,,,0.00,weatherlink.com 1.10,2013-08-14 22:34:00,
2013-08-14 18:49:00,62.9,47.0,29.99,South,186,1.0,12.0,57,0.00,,,0.00,weatherlink.com 1.10,2013-08-14 22:49:00,
2013-08-14 19:04:00,63.3,49.0,29.99,SSW,201,0.0,10.0,59,0.00,,,0.00,weatherlink.com 1.10,2013-08-14 23:04:00,
2013-08-14 19:19:00,62.7,49.0,30.00,SSW,194,4.0,5.0,61,0.00,,,0.00,weatherlink.com 1.10,2013-08-14 23:19:00,
2013-08-14 19:34:00,61.9,49.0,30.01,NE,52,1.0,4.0,62,0.00,,,0.00,weatherlink.com 1.10,2013-08-14 23:34:00,
2013-08-14 20:05:00,60.5,48.0,30.02,West,259,0.0,6.0,63,0.00,,,0.00,weatherlink.com 1.10,2013-08-15 00:05:00,
2013-08-14 20:20:00,59.7,49.0,30.02,SSE,160,0.0,3.0,67,0.00,,,0.00,weatherlink.com 1.10,2013-08-15 00:20:00,
2013-08-14 20:35:00,59.0,48.0,30.03,SSE,162,0.0,4.0,67,0.00,,,0.00,weatherlink.com 1.10,2013-08-15 00:35:00,
2013-08-14 20:50:00,58.7,47.0,30.04,South,183,1.0,3.0,66,0.00,,,0.00,weatherlink.com 1.10,2013-08-15 00:50:00,
2013-08-14 21:05:00,57.4,48.0,30.05,SSE,161,2.0,2.0,70,0.00,,,0.00,weatherlink.com 1.10,2013-08-15 01:05:00,
2013-08-14 21:20:00,57.4,47.0,30.05,SSE,160,1.0,2.0,69,0.00,,,0.00,weatherlink.com 1.10,2013-08-15 01:20:00,
2013-08-14 21:35:00,57.7,47.0,30.06,East,98,0.0,2.0,68,0.00,,,0.00,weatherlink.com 1.10,2013-08-15 01:35:00,
2013-08-14 21:50:00,57.2,47.0,30.06,East,98,0.0,1.0,69,0.00,,,0.00,weatherlink.com 1.10,2013-08-15 01:50:00,
2013-08-14 22:05:00,57.0,47.0,30.07,SSE,155,2.0,2.0,70,0.00,,,0.00,weatherlink.com 1.10,2013-08-15 02:05:00,
2013-08-14 22:20:00,56.5,48.0,30.07,SSE,156,2.0,2.0,73,0.00,,,0.00,weatherlink.com 1.10,2013-08-15 02:20:00,
2013-08-14 22:35:00,56.4,47.0,30.07,NE,38,0.0,4.0,71,0.00,,,0.00,weatherlink.com 1.10,2013-08-15 02:35:00,
2013-08-14 22:50:00,57.5,48.0,30.08,NE,50,0.0,6.0,70,0.00,,,0.00,weatherlink.com 1.10,2013-08-15 02:50:00,
2013-08-14 23:05:00,57.3,48.0,30.08,NE,34,0.0,5.0,70,0.00,,,0.00,weatherlink.com 1.10,2013-08-15 03:05:00,
2013-08-14 23:20:00,57.0,48.0,30.08,East,91,0.0,2.0,71,0.00,,,0.00,weatherlink.com 1.10,2013-08-15 03:20:00,
2013-08-14 23:35:00,57.7,48.0,30.09,South,178,1.0,3.0,70,0.00,,,0.00,weatherlink.com 1.10,2013-08-15 03:35:00,
2013-08-14 23:50:00,58.0,48.0,30.10,NW,323,0.0,6.0,70,0.00,,,0.00,weatherlink.com 1.10,2013-08-15 03:50:00,